x

8413320 - Bar Harbor, Me (atgm1) Weather Station

10:54 - Sun 19th Feb 2017 All times are EST. -5 hours from GMT.

  • Wind
    7mph, 13mph gusts
  • Sea Temp 35°f
  • Ar Temp 51°f
  • Sea Pressure 1000.7mb
  • 8413320 - Bar Harbor, Me
  • 8413320 - Bar Harbor, Me

More Historic Weather Station data

Upgrade to MSW Pro to gain access to the past 30 days of data for over 8000 Wavebouys and Weather Stations around the globe.

Join Pro

Comparision Forecast

View Surf forecast
   
Dom 02/19 10:54 7 13 mph 1000.7mb 35f 51f
10:48 13 17 mph 1000.7mb 35f 51f
10:42 8 16 mph 1000.8mb 35f 52f
10:36 14 17 mph 1000.7mb 35f 51f
10:30 9 11 mph 1000.8mb 35f 51f
10:24 8 17 mph 1000.8mb 35f 51f
10:18 9 20 mph 1000.8mb 35f 51f
10:12 11 18 mph 1000.8mb 35f 50f
10:06 10 18 mph 1000.7mb 35f 50f
10:00 11 18 mph 1000.7mb 35f 50f
9:54 11 21 mph 1000.8mb 35f 50f
9:48 9 15 mph 1000.8mb 35f 50f
9:42 9 16 mph 1000.8mb 35f 49f
9:36 11 16 mph 1000.8mb 35f 49f
9:30 11 18 mph 1000.8mb 35f 49f
9:24 9 18 mph 1000.7mb 35f 49f
9:18 13 15 mph 1000.7mb 35f 49f
9:12 10 16 mph 1000.7mb 35f 49f
9:06 13 17 mph 1000.6mb 35f 49f
9:00 11 16 mph 1000.5mb 35f 49f
8:54 11 17 mph 1000.4mb 35f 49f
8:48 14 18 mph 1000.3mb 35f 49f
8:42 11 17 mph 1000.2mb 35f 48f
8:36 11 18 mph 1000.1mb 35f 48f
8:30 11 18 mph 1000mb 35f 48f
8:24 13 18 mph 1000mb 35f 48f
8:18 14 21 mph 1000mb 35f 48f
8:12 13 18 mph 999.9mb 35f 48f
8:06 13 18 mph 999.9mb 35f 47f
8:00 13 18 mph 999.9mb 35f 47f
7:54 10 18 mph 999.9mb 35f 47f
7:48 15 21 mph 999.8mb 35f 46f
7:42 15 21 mph 999.7mb 35f 46f
7:36 13 20 mph 999.7mb 35f 45f
7:24 11 16 mph 999.6mb 35f 44f
7:18 14 18 mph 999.6mb 35f 44f
7:12 13 20 mph 999.5mb 35f 44f
7:06 13 18 mph 999.4mb 35f 44f
7:00 13 18 mph 999.3mb 35f 44f
6:54 14 20 mph 999.2mb 35f 44f
6:48 13 18 mph 999.1mb 35f 44f
6:42 13 16 mph 998.9mb 35f 43f
6:36 13 16 mph 998.8mb 35f 43f
6:30 14 20 mph 998.8mb 35f 43f
6:24 11 18 mph 998.6mb 35f 43f
6:12 13 18 mph 998.5mb 35f 44f
6:06 13 18 mph 998.4mb 35f 44f
6:00 14 18 mph 998.2mb 35f 44f
5:48 11 18 mph 998mb 35f 45f
5:42 13 18 mph 997.9mb 35f 45f
5:36 15 20 mph 997.8mb 35f 45f
5:30 14 18 mph 997.6mb 35f 45f
5:18 14 20 mph 997.3mb 35f 44f
5:12 15 21 mph 997.1mb 35f 44f
5:06 16 21 mph 997mb 35f 44f
5:00 15 20 mph 996.9mb 35f 45f
4:54 13 18 mph 996.8mb 35f 45f
4:42 14 18 mph 996.7mb 35f 44f
4:36 14 20 mph 996.5mb 35f 44f
4:24 14 20 mph 996.4mb 35f 44f
4:18 15 18 mph 996.5mb 35f 45f
4:12 13 21 mph 996.5mb 35f 45f
4:06 14 21 mph 996.5mb 35f 46f
4:00 14 21 mph 996.4mb 35f 45f
3:54 15 22 mph 996.3mb 35f 46f
3:48 15 22 mph 996.2mb 35f 45f
3:42 14 21 mph 996.1mb 35f 45f
3:36 15 22 mph 995.9mb 35f 45f
3:30 15 21 mph 995.9mb 35f 44f
3:24 14 21 mph 995.9mb 35f 44f
3:18 15 21 mph 995.9mb 35f 44f
3:12 14 20 mph 995.8mb 35f 44f
3:06 15 23 mph 995.7mb 35f 44f
2:54 15 22 mph 995.7mb 35f 44f
2:42 15 20 mph 995.6mb 35f 44f
2:36 15 23 mph 995.6mb 35f 44f
2:30 16 21 mph 995.6mb 35f 44f
2:24 15 21 mph 995.5mb 35f 44f
2:18 14 18 mph 995.5mb 35f 44f
2:12 16 22 mph 995.4mb 35f 45f
2:06 14 20 mph 995.3mb 35f 44f
2:00 14 18 mph 995.2mb 35f 44f
1:54 15 21 mph 995.2mb 35f 44f
1:48 13 21 mph 995.3mb 35f 44f
1:42 14 18 mph 995.3mb 35f 44f
1:36 13 21 mph 995.4mb 35f 44f
1:30 14 21 mph 995.4mb 35f 44f
1:24 14 20 mph 995.4mb 35f 44f
1:18 15 20 mph 995.3mb 35f 44f
1:12 14 22 mph 995.2mb 35f 44f
1:00 15 20 mph 995mb 35f 44f
12:48 14 23 mph 995mb - -
12:42 14 20 mph 995.1mb 35f 43f
12:36 15 21 mph 995.1mb 35f 43f
12:24 14 21 mph 995mb 35f 43f
12:18 16 22 mph 995.1mb 35f 43f
12:12 16 22 mph 995.1mb 35f 43f
12:06 17 22 mph 995.1mb 35f 43f
12:00 17 22 mph 995mb 35f 43f
Sáb 02/18 11:54 15 26 mph 995mb 35f 43f
11:48 15 21 mph 995mb 35f 43f
11:42 16 25 mph 995mb 35f 43f
11:36 15 23 mph 995mb 35f 43f
11:30 14 21 mph 994.9mb 35f 44f
11:24 15 28 mph 994.8mb 35f 44f
11:18 20 28 mph 994.8mb 35f 44f
11:12 18 24 mph 994.6mb 35f 44f
11:06 16 26 mph 994.7mb 35f 44f
11:00 18 26 mph 994.7mb 34f 45f
10:54 16 24 mph 994.6mb 34f 45f
10:48 15 25 mph 994.6mb 34f 45f
10:36 14 20 mph 994.6mb 34f 45f
10:30 14 18 mph 994.6mb 34f 45f
10:24 14 21 mph 994.5mb 34f 45f
10:18 13 24 mph 994.5mb 34f 45f
10:12 14 21 mph 994.4mb 34f 45f
10:06 14 20 mph 994.6mb 34f 45f
9:54 14 20 mph 994.7mb 34f 45f
9:42 15 22 mph 994.7mb 34f 45f
9:36 11 23 mph 994.7mb 34f 45f
9:30 13 21 mph 994.7mb 34f 45f
9:18 13 20 mph 995mb 34f 44f
9:12 14 22 mph 995mb 34f 44f
9:06 10 17 mph 995mb 34f 44f
9:00 6 14 mph 995.1mb 34f 44f
8:54 9 14 mph 995.2mb 34f 44f
8:48 5 14 mph 995.5mb 34f 44f
8:42 7 11 mph 995.5mb 34f 44f
8:36 5 16 mph 995.6mb 34f 44f
8:30 3 11 mph 995.7mb 34f 43f
8:24 9 14 mph 995.8mb 34f 43f
8:18 6 14 mph 996mb 34f 43f
8:12 8 16 mph 996.1mb 34f 43f
8:06 14 21 mph 995.9mb 34f 43f
8:00 8 21 mph 996mb 34f 43f
7:54 9 20 mph 996mb 34f 43f
7:48 11 18 mph 996.1mb 34f 42f
7:42 9 13 mph 996.1mb 34f 42f
7:36 8 18 mph 996.4mb 34f 42f
7:30 5 13 mph 996.4mb 34f 42f
7:24 7 11 mph 996.5mb 34f 42f
7:18 9 15 mph 996.5mb 34f 42f
7:12 6 11 mph 996.6mb 34f 42f
7:06 3 7 mph 996.8mb 34f 41f
7:00 6 16 mph 996.9mb 34f 41f
6:54 9 14 mph 996.8mb 34f 41f
6:48 2 15 mph 996.9mb 34f 41f
6:42 6 13 mph 997.1mb 34f 41f
6:36 8 14 mph 997.2mb 34f 41f
6:30 3 10 mph 997.4mb 34f 40f
6:24 5 11 mph 997.4mb 34f 40f
6:18 8 13 mph 997.3mb 34f 40f
6:12 8 13 mph 997.6mb 34f 40f
6:06 6 15 mph 997.7mb 34f 40f
6:00 5 9 mph 997.7mb 34f 40f
5:54 7 15 mph 998mb 34f 40f
5:48 6 16 mph 997.8mb 34f 40f
5:42 3 11 mph 997.8mb 34f 39f
5:36 6 15 mph 998.1mb 34f 39f
5:30 6 14 mph 998.3mb 34f 39f
5:24 6 14 mph 998.3mb 34f 39f
5:18 9 15 mph 998.3mb 34f 40f
5:12 7 17 mph 998.2mb 34f 39f
5:06 7 13 mph 998.1mb 34f 39f
5:00 5 14 mph 998.2mb 34f 39f
4:54 3 11 mph 998.2mb 34f 39f
4:48 5 15 mph 998.2mb 34f 39f
4:42 6 11 mph 998.2mb 34f 39f
4:36 7 9 mph 998.7mb 34f 39f
4:30 3 11 mph 999.3mb 34f 40f
4:24 5 13 mph 999.6mb 34f 40f
4:18 7 16 mph 999.7mb 34f 40f
4:12 2 8 mph 999.7mb 34f 40f
4:06 7 14 mph 1000mb 34f 40f
4:00 9 14 mph 999.8mb 34f 40f
3:54 6 14 mph 999.9mb 34f 40f
3:48 9 15 mph 1000mb 34f 40f
3:42 6 10 mph 1000.2mb 34f 40f
3:36 7 11 mph 1000.2mb 34f 40f
3:30 5 10 mph 1000.5mb 34f 40f
3:24 6 13 mph 1000.7mb 34f 40f
3:18 9 15 mph 1000.7mb 34f 40f
3:12 9 14 mph 1000.7mb 34f 40f
3:06 8 14 mph 1000.9mb 34f 40f
3:00 6 10 mph 1001mb 34f 40f
2:54 2 11 mph 1000.8mb 34f 40f
2:48 2 13 mph 1000.9mb 34f 40f
2:42 8 15 mph 1001mb 34f 39f
2:36 8 14 mph 1000.9mb 34f 39f
2:30 9 13 mph 1000.8mb 34f 39f
2:24 7 15 mph 1000.5mb 34f 39f
2:18 6 10 mph 1000.7mb 34f 40f
2:12 9 13 mph 1001mb 34f 40f
2:06 6 10 mph 1001.1mb 34f 40f
2:00 8 11 mph 1001.1mb 34f 40f
1:54 6 11 mph 1001.4mb 34f 40f
1:48 6 9 mph 1001.4mb 34f 40f
1:42 7 13 mph 1001.4mb 34f 39f
1:36 5 8 mph 1001.8mb 34f 39f
1:30 7 14 mph 1002mb 34f 39f
1:24 7 11 mph 1002.2mb 34f 39f
1:18 5 9 mph 1002.2mb 34f 39f
1:12 2 6 mph 1002.5mb 34f 39f
1:06 1 9 mph 1002.6mb 34f 39f
1:00 3 7 mph 1002.6mb 34f 38f
12:54 6 11 mph 1002.8mb 34f 38f
12:48 5 8 mph 1003mb 34f 38f
12:42 3 13 mph 1003.2mb 34f 37f
12:36 7 11 mph 1003.1mb 34f 38f
12:30 5 7 mph 1003.3mb 34f 37f
12:24  -  9 mph 1003.8mb 34f 38f
12:18 3 10 mph 1003.7mb 34f 37f
12:12 3 6 mph 1004.3mb 34f 37f
12:06 3 9 mph 1004.3mb 34f 37f
12:00 6 9 mph 1004.4mb 34f 37f
11:54 2 9 mph 1004.6mb 34f 37f
11:48 5 10 mph 1004.7mb 34f 37f
11:42 7 14 mph 1004.8mb 34f 37f
11:36 7 11 mph 1004.8mb 34f 37f
11:30 5 10 mph 1004.9mb 34f 37f
11:24 3 5 mph 1004.8mb 34f 36f
11:18 1 3 mph 1004.8mb 34f 36f
11:12 3 6 mph 1004.8mb 34f 36f
11:06 3 10 mph 1005mb 34f 36f
11:00 2 5 mph 1005.1mb 34f 36f
10:54 2 9 mph 1005.2mb 34f 35f
10:48 6 8 mph 1005.4mb 34f 35f
10:42 8 9 mph 1005.5mb 34f 33f
10:36 2 7 mph 1005.7mb 34f 34f
10:30 3 5 mph 1005.9mb 34f 33f
10:24 5
mph
1005.8mb 34f 33f
10:18 2 5 mph 1005.8mb 34f 33f
10:12 5 6 mph 1005.8mb 34f 33f
10:06 3
mph
1005.9mb 33f 33f
10:00 2 3 mph 1006mb 33f 34f
9:54 2 3 mph 1005.8mb 33f 34f
9:48 3
mph
1005.7mb 33f 33f
9:42 2 5 mph 1005.8mb 33f 33f
9:36 3 6 mph 1005.9mb 33f 33f
9:30  -  3 mph 1006mb 33f 34f
9:24 6 7 mph 1006mb 33f 33f
9:18 3 8 mph 1005.8mb 33f 33f
9:12 6 10 mph 1005.8mb 33f 33f
9:06 5 8 mph 1005.6mb 33f 32f
9:00 2 3 mph 1005.6mb 33f 32f
8:54 2 6 mph 1005.7mb 33f 31f
8:48 2 5 mph 1005.8mb 33f 31f
8:42  -  5 mph 1005.8mb 33f 30f
8:36 5 10 mph 1006mb 33f 30f
8:30 7 14 mph 1006mb 33f 30f
8:24 5 8 mph 1006.1mb 33f 30f
8:18 6 14 mph 1006.1mb 33f 29f
8:12 7 11 mph 1006.4mb 33f 29f
8:06 9 14 mph 1006.5mb 33f 29f
8:00 9 16 mph 1006.5mb 33f 29f
7:54 8 13 mph 1006.5mb 33f 28f
7:48 8 17 mph 1006.5mb 33f 28f
7:42 9 14 mph 1006.7mb 33f 28f
7:36 11 16 mph 1006.7mb 33f 28f
7:30 11 16 mph 1006.8mb 33f 28f
7:24 9 16 mph 1006.8mb 33f 28f
7:18 10 17 mph 1006.8mb 33f 28f
7:12 8 20 mph 1006.9mb 33f 28f
7:06 11 17 mph 1006.9mb 33f 28f
7:00 15 22 mph 1006.7mb 33f 28f
6:54 9 16 mph 1006.8mb 33f 28f
6:48 13 16 mph 1006.7mb 33f 28f
6:42 9 14 mph 1006.5mb 33f 28f
6:36 7 13 mph 1006.2mb 33f 28f
6:30 9 14 mph 1006.1mb 33f 28f
6:24 8 14 mph 1006.1mb 33f 28f
6:18 9 14 mph 1005.9mb 33f 28f
6:12 8 13 mph 1006mb 33f 27f
6:06 9 11 mph 1006.1mb 33f 27f
6:00 6 10 mph 1006.1mb 33f 27f
5:54 7 9 mph 1006.1mb 33f 27f
5:48 7 11 mph 1006.1mb 33f 27f
5:42 6 13 mph 1006mb 33f 27f
5:36 8 11 mph 1006.2mb 33f 26f
5:30 8 15 mph 1006.2mb 33f 26f
5:24 9 13 mph 1006.3mb 33f 26f
5:18 9 14 mph 1006.2mb 33f 26f
5:12 10 14 mph 1006.2mb 33f 26f
5:06 8 13 mph 1006.2mb 33f 26f
5:00 9 15 mph 1006mb 33f 26f
4:54 8 11 mph 1006mb 33f 26f
4:48 8 13 mph 1006.1mb 33f 26f
4:42 8 11 mph 1006.1mb 33f 26f
4:36 7 13 mph 1006mb 33f 26f
4:30 8 14 mph 1006mb 33f 25f
4:24 9 14 mph 1006mb 33f 26f
4:18 9 14 mph 1006mb 33f 26f
4:12 11 15 mph 1006mb 33f 26f
4:06 10 17 mph 1006mb 33f 26f
4:00 10 16 mph 1006mb 33f 26f
3:54 10 15 mph 1006mb 33f 26f
3:48 8 16 mph 1005.9mb 32f 26f
3:42 11 15 mph 1005.7mb 33f 26f
3:36 10 17 mph 1005.6mb 33f 26f
3:30 9 16 mph 1005.4mb 33f 26f
3:24 10 14 mph 1005.3mb 33f 26f
3:18 11 15 mph 1005.3mb 33f 26f
3:12 9 13 mph 1005.2mb 33f 26f
3:06 7 15 mph 1005.2mb 33f 26f
3:00 9 14 mph 1005.2mb 33f 26f
2:54 9 14 mph 1005.2mb 33f 26f
2:48 10 15 mph 1005.1mb 33f 26f
2:42 9 13 mph 1005mb 34f 26f
2:36 9 16 mph 1005.1mb 34f 26f
2:30 11 15 mph 1005mb 34f 25f
2:24 13 18 mph 1005.1mb 34f 26f
2:18 14 18 mph 1004.9mb 34f 26f
2:12 10 16 mph 1004.9mb 34f 26f
2:06 10 17 mph 1004.7mb 34f 26f
2:00 11 17 mph 1004.5mb 34f 26f
1:54 11 16 mph 1004.5mb 34f 25f
1:48 11 17 mph 1004.4mb 34f -
1:42 11 14 mph 1004.4mb 34f -
1:36 11 16 mph 1004.3mb 34f -
1:30 13 17 mph 1004.4mb 34f 25f
1:24 14 20 mph 1004.3mb 34f 25f
1:18 13 18 mph 1004.2mb 34f 26f
1:12 14 16 mph 1004.1mb 34f 25f
1:06 15 18 mph 1004.1mb 34f 26f
1:00 16 18 mph 1004.1mb 34f 26f
12:54 16 21 mph 1004.2mb 34f 26f
12:48 16 22 mph 1004.1mb 34f 26f
12:42 16 20 mph 1003.9mb 34f 26f
12:36 17 22 mph 1003.8mb 34f 26f
12:30 16 22 mph 1003.8mb 34f 26f
12:24 17 21 mph 1003.9mb 34f 26f
12:18 17 20 mph 1003.8mb 34f 26f
12:12 17 20 mph 1003.6mb 34f 26f
12:06 16 20 mph 1003.5mb 34f 26f
12:00 14 17 mph 1003.4mb 34f 26f
Sex 02/17 11:54 13 15 mph 1003.4mb 34f 25f
11:48 11 14 mph 1003.4mb 34f 25f
11:42 9 13 mph 1003.4mb 34f 25f
11:36 10 14 mph 1003.3mb 34f 26f
11:30 10 15 mph 1003.3mb 34f 26f
11:24 11 15 mph 1003.3mb 34f 26f
11:18 14 18 mph 1003.4mb 34f 26f
11:12 14 20 mph 1003.3mb 34f 26f
11:06 14 21 mph 1003.3mb 34f 26f
11:00 15 22 mph 1003.2mb 34f 26f
10:54 15 20 mph 1003.2mb 33f 26f
10:48 16 20 mph 1003.2mb 33f 26f
10:42 18 23 mph 1003.1mb 33f 27f
10:36 20 22 mph 1003mb 33f 27f
10:30 18 24 mph 1002.8mb 33f 27f
10:24 18 23 mph 1002.7mb 33f 27f
10:18 14 18 mph 1002.8mb 33f 27f
10:12 15 22 mph 1002.9mb 33f 27f
10:06 14 17 mph 1002.8mb 33f 27f
10:00 13 18 mph 1002.7mb 33f 27f
9:54 14 17 mph 1002.8mb 33f 27f
9:48 10 16 mph 1002.7mb 33f 27f
9:42 11 21 mph 1002.6mb 33f 27f
9:36 20 28 mph 1002.4mb 33f 28f
9:30 22 26 mph 1002mb 33f 28f
9:24 20 23 mph 1002mb 33f 28f
9:18 21 26 mph 1002mb 33f 28f
9:12 17 24 mph 1002mb 33f 28f
9:06 22 25 mph 1002mb 34f 28f
9:00 21 25 mph 1001.9mb 34f 28f
8:54 21 25 mph 1001.8mb 34f 28f
8:48 22 24 mph 1001.7mb 34f 29f
8:42 22 24 mph 1001.6mb 34f 29f
8:36 21 26 mph 1001.5mb 34f 29f
8:30 23 29 mph 1001.3mb 34f 29f
8:24 24 30 mph 1001.2mb 34f 29f
8:18 24 30 mph 1001.1mb 34f 29f
8:12 24 29 mph 1001.1mb 34f 29f
8:06 24 29 mph 1000.8mb 34f 29f
8:00 24 30 mph 1000.7mb 34f 29f
7:54 28 32 mph 1000.5mb 34f 30f
7:48 25 30 mph 1000.5mb 34f 30f
7:42 24 28 mph 1000.5mb 34f 30f
7:36 24 29 mph 1000.4mb 34f 30f
7:30 22 26 mph 1000.3mb 34f 30f
7:24 20 23 mph 1000.3mb 34f 30f
7:18 20 24 mph 1000.3mb 34f 30f
7:12 18 23 mph 1000.2mb 34f 30f
7:06 18 23 mph 1000.2mb 34f 30f
7:00 21 24 mph 1000.1mb 34f 30f
6:54 18 23 mph 1000.1mb 34f 30f
6:48 17 21 mph 1000mb 34f 30f
6:42 15 21 mph 1000.1mb 34f 30f
6:36 15 20 mph 1000.1mb 34f 31f
6:30 14 21 mph 1000mb 34f 31f
6:24 14 16 mph 999.9mb 34f 31f
6:18 13 17 mph 999.9mb 34f 31f
6:12 13 20 mph 999.8mb 34f 31f
6:06 16 22 mph 999.7mb 34f 31f
6:00 16 22 mph 999.6mb 34f 31f
5:54 17 23 mph 999.5mb 34f 32f
5:48 17 22 mph 999.3mb 34f 32f
5:42 20 26 mph 999.1mb 34f 32f
5:36 18 21 mph 999.1mb 34f 32f
5:30 17 21 mph 999mb 34f 32f
5:24 17 21 mph 998.9mb 34f 32f
5:18 14 17 mph 998.9mb 34f 32f
5:12 14 20 mph 998.8mb 34f 32f
5:06 15 21 mph 998.6mb 34f 32f
5:00 16 21 mph 998.5mb 34f 33f
4:54 16 22 mph 998.3mb 34f 33f
4:48 14 17 mph 998.4mb 34f -
4:42 13 17 mph 998.2mb 34f 33f
4:36 14 18 mph 998.1mb 34f 34f
4:30 15 21 mph 997.9mb 34f 34f
4:24 13 21 mph 997.9mb 34f 34f
4:18 17 25 mph 997.8mb 34f 34f
4:12 20 24 mph 997.6mb 34f 34f
4:06 16 23 mph 997.5mb 34f 34f
4:00 17 24 mph 997.4mb 34f 35f
3:54 22 29 mph 997.3mb 34f 35f
3:48 20 26 mph 997.3mb 34f -
3:42 18 24 mph 997.2mb 34f 35f
3:36 18 24 mph 997.1mb 34f 35f
3:30 20 26 mph 997.1mb 34f 35f
3:24 23 29 mph 997mb 34f 35f
3:18 23 29 mph 996.9mb 34f 35f
3:12 22 28 mph 996.8mb 34f 36f
3:06 18 24 mph 996.7mb 34f 36f
3:00 23 29 mph 996.5mb 34f 36f
2:54 24 30 mph 996.3mb 34f 35f
2:48 21 24 mph 996.3mb 34f 35f
2:42 20 28 mph 996.3mb 34f 35f
2:36 22 29 mph 996mb 35f 35f
2:30 25 31 mph 995.9mb 35f 35f
2:24 22 28 mph 995.9mb 34f 35f
2:18 21 26 mph 995.8mb 34f 35f
2:12 24 31 mph 995.7mb 34f 35f
2:06 26 33 mph 995.6mb 34f 35f
2:00 26 33 mph 995.4mb 34f 35f
1:54 25 33 mph 995.5mb 34f 35f
1:48 21 25 mph 995.5mb 34f 35f
1:42 18 28 mph 995.6mb 34f 35f
1:36 18 25 mph 995.7mb 34f 35f
1:30 20 29 mph 995.7mb 34f 35f
1:24 17 28 mph 995.7mb 34f 35f
1:18 18 24 mph 995.7mb 34f 35f
1:12 21 28 mph 995.6mb 34f 35f
1:06 20 25 mph 995.6mb 34f 34f
1:00 20 25 mph 995.6mb 34f 35f
12:54 16 24 mph 995.6mb 34f 35f
12:48 21 25 mph 995.6mb 34f 35f
12:42 17 22 mph 995.7mb 34f 35f
12:36 18 29 mph 995.6mb 34f 35f
12:30 22 25 mph 995.5mb 34f 35f
12:24 22 26 mph 995.5mb 34f 34f
12:18 22 26 mph 995.5mb 34f 34f
12:12 22 28 mph 995.6mb 33f 34f
12:06 18 26 mph 995.6mb 33f 34f
12:00 22 29 mph 995.5mb 33f 34f
11:54 20 29 mph 995.6mb 33f 33f
11:48 22 29 mph 995.4mb 33f 33f
11:42 18 29 mph 995.6mb 33f 33f
11:36 25 33 mph 995.5mb 33f 33f
11:30 24 30 mph 995.4mb 33f 33f
11:24 25 31 mph 995.5mb 33f 33f
11:18 25 30 mph 995.5mb 33f 33f
11:12 24 30 mph 995.5mb 33f 33f
11:06 23 29 mph 995.5mb 33f 32f
11:00 24 30 mph 995.5mb 33f 32f
10:54 21 33 mph 995.7mb 33f 31f
10:48 20 28 mph 995.6mb 33f 31f
10:42 20 28 mph 995.7mb 33f 31f
10:36 20 22 mph 995.7mb 33f 31f
10:30 17 22 mph 995.9mb 33f 31f
10:24 17 25 mph 995.9mb 33f 31f
10:18 21 26 mph 995.9mb 33f 30f
10:12 20 29 mph 995.9mb 33f 30f
10:06 25 28 mph 995.7mb 33f 30f
10:00 20 29 mph 995.8mb 33f 30f
9:54 22 28 mph 995.8mb 33f 29f
9:48 22 29 mph 995.8mb 33f 29f
9:42 25 32 mph 995.7mb 33f 29f
9:36 22 29 mph 995.8mb 33f 29f
9:30 17 25 mph 995.8mb 33f 28f
9:24 20 26 mph 995.9mb 33f 28f
9:18 18 31 mph 995.8mb 33f 28f
9:12 20 24 mph 995.7mb 33f 27f
9:06 16 25 mph 995.7mb 33f 27f
9:00 20 24 mph 995.6mb 33f 27f
8:54 22 25 mph 995.6mb 33f 26f
8:48 20 26 mph 995.7mb 33f 26f
8:42 21 26 mph 995.6mb 33f 26f
8:36 20 24 mph 995.5mb 33f 26f
8:30 20 28 mph 995.4mb 33f 25f
8:24 22 28 mph 995.4mb 33f 26f
8:18 20 26 mph 995.4mb 33f 25f
8:12 21 25 mph 995.4mb 33f 25f
8:06 20 26 mph 995.4mb 33f 25f
8:00 16 23 mph 995.5mb 33f 25f
7:54 17 25 mph 995.5mb 33f 25f
7:48 21 28 mph 995.4mb 33f 25f
7:42 20 25 mph 995.3mb 33f 26f
7:36 20 28 mph 995.3mb 33f 26f
7:30 20 26 mph 995.2mb 33f 26f
7:24 22 30 mph 995mb 33f 26f
7:18 20 30 mph 995.1mb 33f 26f
7:12 18 24 mph 995mb 33f 25f
7:06 17 25 mph 995mb 33f 25f
7:00 20 26 mph 995mb 33f 25f
6:54 21 24 mph 994.9mb 33f 25f
6:48 23 30 mph 994.7mb 33f 25f
6:42 21 28 mph 994.6mb 33f 25f
6:36 22 28 mph 994.6mb 33f 26f
6:30 22 25 mph 994.4mb 33f 26f
6:24 21 26 mph 994.4mb 33f 26f
6:18 22 29 mph 994.4mb 33f 26f
6:12 21 26 mph 994.5mb 33f 26f
6:06 20 26 mph 994.5mb 33f 26f
6:00 21 26 mph 994.4mb 33f 26f
5:54 20 25 mph 994.3mb 33f 26f
5:48 21 26 mph 994.2mb 33f 26f
5:42 21 29 mph 994.2mb 33f 26f
5:36 18 28 mph 994.1mb 33f 26f
5:30 22 26 mph 994mb 33f 26f
5:24 21 28 mph 994.1mb 33f 26f
5:18 18 26 mph 994mb 33f 26f
5:12 22 26 mph 994mb 33f 26f
5:06 20 26 mph 993.9mb 33f 26f
5:00 21 26 mph 993.9mb 33f 26f
4:54 16 23 mph 993.9mb 33f 26f
4:48 20 26 mph 993.8mb 33f 26f
4:42 18 26 mph 993.8mb 33f 26f
4:36 21 28 mph 993.7mb 33f 26f
4:30 21 28 mph 993.6mb 33f 26f
4:24 23 28 mph 993.6mb 33f 26f
4:18 22 26 mph 993.5mb 33f 26f
4:12 20 26 mph 993.4mb 33f 26f
4:06 21 28 mph 993.4mb 33f 26f
4:00 20 30 mph 993.4mb 33f 26f
3:54 21 28 mph 993.3mb 33f 26f
3:48 20 28 mph 993.2mb 33f 26f
3:42 21 26 mph 993.3mb 33f 26f
3:36 18 23 mph 993.3mb 33f 26f
3:30 16 24 mph 993.3mb 33f 26f
3:24 18 23 mph 993.2mb 33f 26f
3:18 17 24 mph 993.2mb 33f 26f
3:12 18 24 mph 993.2mb 33f 26f
3:06 20 22 mph 993.2mb 33f 26f
3:00 17 22 mph 993.2mb 33f 26f
2:54 18 22 mph 993.2mb 33f 26f
2:48 17 25 mph 993.3mb 33f 26f
2:42 17 23 mph 993.3mb 33f 26f
2:36 16 22 mph 993.3mb 33f 26f
2:30 15 23 mph 993.3mb 32f 26f
2:24 16 22 mph 993.3mb 33f 26f
2:18 15 21 mph 993.4mb 33f 26f
2:12 15 22 mph 993.3mb 33f 26f
2:06 15 20 mph 993.3mb 33f 26f
2:00 15 20 mph 993.3mb 33f 26f
1:54 16 21 mph 993.3mb 33f 26f
1:48 17 23 mph 993.4mb 33f 26f
1:42 17 23 mph 993.3mb 34f 27f
1:36 16 24 mph 993.3mb 34f 27f
1:30 16 21 mph 993.3mb 34f 26f
1:24 15 22 mph 993.3mb 34f 26f
1:18 15 22 mph 993.4mb 34f 26f
1:12 14 21 mph 993.3mb 34f 26f
1:06 15 24 mph 993.2mb 34f 26f
1:00 16 21 mph 993.2mb 34f 26f
12:54 15 22 mph 993.1mb 34f 26f
12:48 17 25 mph 993mb 34f 26f
12:42 17 23 mph 992.9mb 34f 26f
12:36 17 23 mph 992.9mb 34f 26f
12:30 17 24 mph 992.9mb 34f 26f
12:24 18 23 mph 992.9mb 34f 26f
12:18 18 23 mph 992.9mb 34f 26f
12:12 16 21 mph 993mb 34f 26f
12:06 17 24 mph 993.1mb 34f 26f
12:00 20 24 mph 993mb 34f 26f
Qui 02/16 11:54 17 25 mph 993.1mb 34f 26f
11:48 21 24 mph 992.9mb 34f 27f
11:42 23 29 mph 992.8mb 34f 27f
11:36 21 28 mph 992.8mb 34f 27f
11:30 20 25 mph 992.8mb 34f 27f
11:24 21 26 mph 992.8mb 34f 27f
11:18 20 24 mph 992.8mb 34f 27f
11:12 20 24 mph 992.8mb 34f 27f
11:06 20 24 mph 992.9mb 34f 27f
11:00 16 23 mph 993mb 34f 27f
10:54 14 18 mph 993mb 34f 26f
10:48 14 20 mph 993mb 34f 27f
10:42 16 24 mph 993mb 34f 27f
10:36 21 26 mph 992.9mb 34f 27f
10:30 17 24 mph 993mb 34f 27f
10:24 18 23 mph 993mb 34f 27f
10:18 15 21 mph 993mb 34f 27f
10:12 15 21 mph 993mb 34f 27f
10:06 18 24 mph 992.8mb 34f 27f
10:00 18 23 mph 992.8mb 34f 27f
9:54 15 21 mph 992.8mb 34f 27f
9:48 16 22 mph 992.8mb 34f 27f
9:42 17 22 mph 992.8mb 34f 27f
9:36 18 23 mph 992.7mb 34f 27f
9:30 18 28 mph 992.7mb 34f 27f
9:24 20 23 mph 992.6mb 34f 27f
9:18 20 25 mph 992.5mb 34f 27f
9:12 17 25 mph 992.5mb 34f 27f
9:06 18 24 mph 992.5mb 34f 27f
9:00 20 25 mph 992.5mb 34f 27f
8:54 18 25 mph 992.6mb 34f 27f
8:48 18 24 mph 992.5mb 34f 27f
8:42 18 23 mph 992.6mb 34f 26f
8:36 18 22 mph 992.6mb 34f 27f
8:30 18 24 mph 992.6mb 34f 27f
8:24 16 21 mph 992.7mb 33f 27f
8:18 16 22 mph 992.7mb 33f 26f
8:12 16 21 mph 992.7mb 33f 27f
8:06 16 21 mph 992.7mb 33f 27f
8:00 16 21 mph 992.6mb 33f 27f
7:54 17 22 mph 992.6mb 33f 27f
7:48 15 21 mph 992.6mb 33f 27f
7:42 16 23 mph 992.6mb 33f 27f
7:36 15 21 mph 992.6mb 33f 27f
7:30 15 18 mph 992.6mb 33f 27f
7:24 14 18 mph 992.6mb 33f 27f
7:18 14 22 mph 992.5mb 33f 27f
7:12 16 21 mph 992.4mb 33f 27f
7:06 17 25 mph 992.3mb 33f 27f
7:00 18 22 mph 992.2mb 34f 27f
6:54 20 24 mph 992.2mb 33f 27f
6:48 16 22 mph 992.1mb 33f 27f
6:42 17 21 mph 992.2mb 34f 27f
6:36 16 22 mph 992.1mb 33f 27f
6:30 18 23 mph 992mb 33f 27f
6:24 16 22 mph 991.9mb 33f 27f
6:18 17 22 mph 991.9mb 33f 28f
6:12 18 24 mph 991.8mb 33f 28f
6:06 17 22 mph 991.8mb 33f 28f
6:00 18 21 mph 991.7mb 33f 28f
5:54 16 22 mph 991.8mb 33f 28f
5:48 21 23 mph 991.7mb 33f 29f
5:42 17 22 mph 991.6mb 33f 29f
5:36 20 24 mph 991.5mb 33f 29f
5:30 23 29 mph 991.4mb 33f 29f
5:24 22 26 mph 991.2mb 33f 29f
5:18 20 24 mph 991.1mb 33f 29f
5:12 21 25 mph 991mb 33f 29f
5:06 23 28 mph 990.9mb 33f 29f
5:00 18 28 mph 990.8mb 33f 29f
4:54 22 28 mph 990.7mb 33f 29f
4:48 21 23 mph 990.7mb 33f 29f
4:42 17 22 mph 990.7mb 33f 29f
4:36 17 22 mph 990.6mb 33f 29f
4:30 18 21 mph 990.5mb 33f 29f
4:24 20 23 mph 990.4mb 33f 29f
4:18 18 23 mph 990.4mb 33f 29f
4:12 21 28 mph 990.4mb 33f 29f
4:06 20 26 mph 990.4mb 33f 29f
4:00 22 25 mph 990.3mb 33f 29f
3:54 22 30 mph 990.1mb 33f 29f
3:48 23 26 mph 990mb 33f 29f
3:42 18 25 mph 990mb 33f 29f
3:36 23 28 mph 989.9mb 33f 29f
3:30 18 26 mph 989.9mb 33f 29f
3:24 20 26 mph 989.9mb 33f 29f
3:18 21 25 mph 989.8mb 33f 29f
3:12 21 26 mph 989.7mb 33f 29f
3:06 22 24 mph 989.6mb 33f 29f
3:00 22 24 mph 989.5mb 33f 29f
2:54 22 26 mph 989.5mb 33f 29f
2:48 22 26 mph 989.4mb 33f 29f
2:42 23 25 mph 989.4mb 33f 29f
2:36 20 25 mph 989.4mb 33f 29f
2:30 22 24 mph 989.3mb 33f 29f
2:24 17 26 mph 989.2mb 33f 29f
2:18 17 21 mph 989.2mb 33f 29f
2:12 16 25 mph 989.1mb 33f 29f
2:06 20 23 mph 989mb 33f 29f
2:00 18 22 mph 989mb 33f 29f
1:54 18 22 mph 989mb 33f 29f
1:48 21 25 mph 988.9mb 33f 29f
1:42 22 24 mph 988.9mb 33f 29f
1:36 18 23 mph 988.9mb 33f 28f
1:30 20 23 mph 988.8mb 33f 29f
1:24 15 25 mph 988.8mb 33f 29f
1:18 20 23 mph 988.8mb 33f 28f
1:12 22 26 mph 988.8mb 33f 28f
1:06 21 24 mph 988.8mb 33f 28f
1:00 18 26 mph 988.8mb 33f 29f
12:54 21 26 mph 988.8mb 33f 28f
12:48 21 28 mph 988.9mb 33f 28f
12:42 20 28 mph 988.9mb 33f 28f
12:36 20 24 mph 988.9mb 33f 28f
12:30 17 25 mph 989mb 33f 28f
12:24 21 24 mph 988.9mb 33f 27f
12:18 21 24 mph 989mb 33f 27f
12:12 22 26 mph 988.9mb 33f 27f
12:06 21 26 mph 989mb 33f 27f
12:00 23 26 mph 989mb 33f 27f
11:54 22 26 mph 989mb 33f 26f
11:48 16 24 mph 989.2mb 33f 26f
11:42 20 25 mph 989.2mb 33f 26f
11:36 22 24 mph 989.3mb 33f 26f
11:30 21 26 mph 989.3mb 33f 25f
11:24 20 28 mph 989.4mb 33f 25f
11:18 22 26 mph 989.4mb 33f 25f
11:12 23 28 mph 989.3mb 33f 25f
11:06 21 26 mph 989.4mb 33f 25f
11:00 21 24 mph 989.5mb 33f 24f
10:54 21 25 mph 989.5mb 33f 24f
10:48 20 26 mph 989.4mb 33f 24f
10:42 22 26 mph 989.3mb 33f 24f
10:36 21 26 mph 989.3mb 33f 24f
10:30 22 26 mph 989.2mb 33f 24f
10:24 22 28 mph 989.3mb 33f 24f
10:18 21 25 mph 989.2mb 33f 24f
10:12 23 25 mph 989.1mb 33f 24f
10:06 20 23 mph 989.1mb 33f 24f
10:00 21 25 mph 989.2mb 33f 23f
9:54 21 30 mph 989.1mb 33f 23f
9:48 22 25 mph 989.1mb 33f 23f
9:42 20 24 mph 989.2mb 33f 23f
9:36 22 28 mph 989.1mb 33f 23f
9:30 22 26 mph 989.1mb 33f 23f
9:24 23 28 mph 989mb 33f 23f
9:18 22 30 mph 989.1mb 33f 23f
9:12 22 29 mph 989.1mb 32f 23f
9:06 21 29 mph 989.1mb 33f 23f
9:00 21 29 mph 989.1mb 33f 23f
8:54 20 28 mph 989mb 33f 23f
8:48 22 31 mph 988.9mb 33f 23f
8:42 22 29 mph 988.9mb 33f 23f
8:36 21 29 mph 989mb 33f 23f
8:30 24 26 mph 988.8mb 33f 23f
8:24 23 29 mph 988.8mb 33f 23f
8:18 21 29 mph 988.7mb 33f 23f
8:12 22 28 mph 988.7mb 33f 23f
8:06 21 28 mph 988.6mb 33f 23f
8:00 21 26 mph 988.5mb 33f 23f
7:54 22 26 mph 988.5mb 33f 23f
7:48 22 28 mph 988.4mb 33f 23f
7:42 22 28 mph 988.5mb 33f 23f
7:36 23 29 mph 988.4mb 33f 23f
7:30 22 28 mph 988.4mb 33f 23f
7:24 23 30 mph 988.3mb 33f 23f
7:18 22 28 mph 988.3mb 33f 23f
7:12 22 28 mph 988.3mb 33f 23f
7:06 21 29 mph 988.2mb 33f 23f
7:00 21 26 mph 988.1mb 33f 23f
6:54 22 28 mph 988mb 33f 23f
6:48 22 26 mph 987.9mb 33f 23f
6:42 22 28 mph 987.9mb 33f 23f
6:36 21 28 mph 987.8mb 33f 23f
6:30 20 26 mph 987.7mb 33f 23f
6:24 22 26 mph 987.7mb 33f 23f
6:18 21 26 mph 987.7mb 33f 23f
6:12 21 25 mph 987.7mb 33f 23f
6:06 21 26 mph 987.8mb 33f 23f
6:00 20 25 mph 987.8mb 33f 23f
5:54 22 26 mph 987.7mb 33f 23f
5:48 20 22 mph 987.7mb 33f 23f
5:42 20 23 mph 987.7mb 33f 24f
5:36 20 25 mph 987.7mb 33f 23f
5:30 17 23 mph 987.7mb 33f 23f
5:24 17 23 mph 987.6mb 33f 23f
5:18 17 23 mph 987.6mb 33f 23f
5:12 17 23 mph 987.6mb 33f 23f
5:06 15 23 mph 987.5mb 33f 24f
5:00 15 22 mph 987.5mb 33f 23f
4:54 16 24 mph 987.4mb 33f 23f
4:48 16 21 mph 987.4mb 33f 23f
4:42 13 20 mph 987.4mb 33f 23f
4:36 14 21 mph 987.4mb 33f 23f
4:30 11 22 mph 987.4mb 33f 24f
4:24 14 20 mph 987.4mb 33f 23f
4:18 13 24 mph 987.3mb 33f 24f
4:12 10 20 mph 987.3mb 33f 24f
4:06 14 18 mph 987.3mb 33f 24f
4:00 13 23 mph 987.3mb 33f 24f
3:54 10 23 mph 987.2mb 33f 24f
3:48 9 21 mph 987.2mb 33f 24f
3:42 14 21 mph 987.1mb 33f 24f
3:36 11 18 mph 987.1mb 33f 24f
3:30 13 23 mph 987.1mb 33f 24f
3:24 8 20 mph 987mb 33f 24f
3:18 14 20 mph 987mb 33f 24f
3:12 8 17 mph 987mb 33f 24f
3:06 9 21 mph 987mb 33f 24f
3:00 8 22 mph 987.1mb 33f 24f
2:54 9 16 mph 987.1mb 34f 24f
2:48 14 18 mph 987.2mb 34f 24f
2:42 14 23 mph 987.3mb 34f 24f
2:36 13 21 mph 987.5mb 34f 24f
2:30 13 20 mph 987.5mb 34f 24f
2:24 14 21 mph 987.6mb 34f 24f
2:18 14 18 mph 987.6mb 34f 24f
2:12 14 20 mph 987.8mb 34f 24f
2:06 13 18 mph 987.8mb 34f 24f
2:00 14 22 mph 987.9mb 34f 24f
1:54 15 22 mph 988mb 33f 24f
1:48 13 20 mph 988mb 34f -
1:42 14 22 mph 988.1mb 34f -
1:36 14 22 mph 988.2mb 34f -
1:30 16 22 mph 988.3mb 34f 25f
1:24 18 22 mph 988.4mb 34f 25f
1:18 17 23 mph 988.5mb 34f 25f
1:12 17 22 mph 988.6mb 34f 25f
1:06 17 23 mph 988.8mb 34f 25f
1:00 18 23 mph 988.8mb 34f 25f
12:54 20 24 mph 988.9mb 34f 25f
12:48 20 28 mph 989.1mb 34f 26f
12:42 20 24 mph 989.2mb 34f 26f
12:36 18 23 mph 989.2mb 34f 26f
12:30 17 24 mph 989.3mb 34f 26f
12:24 20 23 mph 989.5mb 34f 26f
12:18 18 23 mph 989.6mb 34f 26f
12:12 18 23 mph 989.8mb 34f 27f
12:06 17 22 mph 989.9mb 34f 27f
12:00 17 23 mph 989.9mb 34f 27f
Qua 02/15 11:54 17 21 mph 990.1mb 34f 27f
11:48 18 22 mph 990.2mb 34f 27f
11:42 17 22 mph 990.2mb 34f 27f
11:36 17 21 mph 990.3mb 34f 27f
11:30 18 21 mph 990.4mb 34f 27f
11:24 15 22 mph 990.5mb 35f 28f
11:18 16 21 mph 990.6mb 35f 28f
11:12 14 22 mph 990.7mb 34f 28f
11:06 14 22 mph 990.8mb 35f 28f
11:00 14 20 mph 991mb 34f 28f
10:54 14 18 mph 991.1mb 34f 28f
10:48 11 18 mph 991.2mb 34f 28f
10:42 14 18 mph 991.3mb 34f 28f
10:36 15 18 mph 991.4mb 34f 28f
10:30 16 20 mph 991.5mb 34f 28f
10:24 14 18 mph 991.7mb 34f 28f
10:18 13 15 mph 991.7mb 34f 28f
10:12 14 18 mph 992mb 34f 28f
10:06 15 20 mph 992.1mb 34f 29f
10:00 13 21 mph 992.2mb 34f 29f
9:54 15 20 mph 992.4mb 34f 29f
9:48 15 17 mph 992.6mb 34f 29f
9:42 16 22 mph 992.7mb 34f 29f
9:36 15 21 mph 993mb 34f 30f
9:30 15 20 mph 993mb 34f 30f
9:24 13 17 mph 993.2mb 34f 30f
9:18 13 17 mph 993.4mb 34f 30f
9:12 11 16 mph 993.5mb 34f 30f
9:06 11 18 mph 993.7mb 34f 30f
9:00 13 17 mph 993.9mb 34f 30f
8:54 15 17 mph 994.2mb 34f 30f
8:48 14 20 mph 994.4mb 34f 30f
8:42 16 20 mph 994.4mb 34f 31f
8:36 15 22 mph 994.6mb 34f 31f
8:30 15 21 mph 994.7mb 34f 31f
8:24 17 21 mph 994.8mb 34f 31f
8:18 15 21 mph 994.9mb 34f 31f
8:12 14 21 mph 995mb 34f 31f
8:06 13 18 mph 995.2mb 34f 31f
8:00 15 20 mph 995.3mb 34f 31f
7:54 16 22 mph 995.4mb 34f 31f
7:48 17 21 mph 995.5mb 34f 31f
7:42 15 18 mph 995.6mb 34f 31f
7:36 14 18 mph 995.9mb 34f 31f
7:30 15 18 mph 995.9mb 34f 31f
7:24 15 20 mph 996mb 34f 31f
7:18 16 24 mph 996.1mb 34f 33f
7:12 20 23 mph 996.1mb 34f 33f
7:00 17 22 mph 996.5mb 34f 33f
6:54 20 22 mph 996.5mb 34f 33f
6:48 21 25 mph 996.6mb 34f 33f
6:42 20 25 mph 996.6mb 34f 33f
6:36 22 25 mph 996.8mb 34f 33f
6:30 23 26 mph 996.8mb 34f 33f
6:24 24 28 mph 997mb 34f 33f
6:18 21 26 mph 997.1mb 34f 33f
6:12 23 26 mph 997.3mb 34f 33f
6:06 23 29 mph 997.4mb 34f 33f
6:00 24 29 mph 997.5mb 34f 33f
5:54 23 28 mph 997.6mb 34f 33f
5:48 25 29 mph 997.7mb 34f 33f
5:42 24 29 mph 997.9mb 34f 33f
5:36 24 29 mph 998.1mb 34f 33f
5:30 25 29 mph 998mb 34f 33f
5:24 24 26 mph 998.2mb 34f 33f
5:18 21 28 mph 998.4mb 34f 34f
5:12 25 30 mph 998.5mb 34f 34f
5:06 25 31 mph 998.6mb 34f 34f
5:00 24 26 mph 998.7mb 34f 34f